Date,TemperatureHighF,TemperatureAvgF,TemperatureLowF,DewpointHighF,DewpointAvgF,DewpointLowF,HumidityHigh,HumidityAvg,HumidityLow,PressureMaxIn,PressureMinIn,WindSpeedMaxMPH,WindSpeedAvgMPH,GustSpeedMaxMPH,PrecipitationSumIn
2013-1-1,32,22,10,27,18,8,98,83,59,30.25,30.03,26,4,26,0.00
2013-1-2,30,25,18,26,20,13,100,81,58,30.39,30.10,38,11,38,0.00
2013-1-3,30,18,4,21,13,3,100,82,48,30.45,30.18,14,3,16,0.00
2013-1-4,43,31,21,24,14,6,73,50,32,30.21,30.00,15,3,15,0.00
2013-1-5,41,32,21,24,18,12,78,57,40,30.30,30.07,33,8,33,0.00
2013-1-6,55,34,13,23,14,10,93,50,19,30.29,29.73,31,9,32,0.00
2013-1-7,43,32,23,26,22,16,93,68,39,30.06,29.78,16,5,16,0.00
2013-1-8,48,37,23,31,24,16,100,64,30,30.21,29.71,43,9,43,0.00
2013-1-9,59,39,22,32,24,16,100,58,26,30.22,29.87,32,8,34,0.00
2013-1-10,48,39,32,29,22,18,90,53,34,29.89,29.47,35,17,35,0.00
2013-1-11,32,16,7,30,15,4,100,96,78,30.02,29.53,49,21,49,0.00
2013-1-12,9,7,3,9,6,3,100,97,81,30.31,30.02,29,7,29,0.00
2013-1-13,14,6,1,12,5,0,100,97,79,30.33,30.22,13,2,14,0.00
2013-1-14,20,8,3,12,6,0,100,89,55,30.35,30.18,8,2,9,0.00
2013-1-15,42,22,3,32,16,-4,98,80,54,30.22,29.87,24,3,24,0.00
2013-1-16,46,39,31,30,24,21,82,56,38,30.28,29.92,29,6,29,0.00
2013-1-17,49,36,25,32,23,18,79,59,42,30.39,30.06,16,4,16,0.00
2013-1-18,56,44,30,27,20,15,64,40,20,30.06,29.81,29,6,29,0.00
2013-1-19,46,35,20,27,22,16,100,62,33,30.31,29.93,36,10,36,0.00
2013-1-20,30,18,10,27,16,10,100,95,74,30.48,30.10,35,13,35,0.00
2013-1-21,14,10,8,14,10,8,100,100,97,30.46,30.35,12,2,13,0.00
2013-1-22,38,24,4,22,15,4,100,71,31,30.27,30.05,16,3,16,0.00
2013-1-23,25,16,9,19,15,9,100,93,68,30.41,30.15,22,4,23,0.00
2013-1-24,44,24,8,25,17,8,100,78,42,30.29,29.91,25,6,26,0.00
2013-1-25,49,35,25,29,24,19,87,65,40,30.19,29.99,15,3,20,0.00
2013-1-26,52,39,29,29,26,21,82,62,36,30.03,29.80,20,4,20,0.00
2013-1-27,50,37,27,34,27,18,95,68,44,29.87,29.62,23,6,23,0.00
2013-1-28,30,28,26,29,22,17,100,80,65,29.90,29.83,25,9,25,0.00
2013-1-29,35,24,6,27,19,6,100,82,52,30.20,29.79,36,11,38,0.00
2013-1-30,19,9,-1,17,9,-1,100,98,84,30.20,29.91,26,3,26,0.00
2013-1-31,14,6,1,14,6,0,100,99,84,30.42,30.02,34,11,35,0.00
2013-2-1,45,35,8,35,29,8,100,79,59,30.22,29.92,29,6,29,0.00
2013-2-2,47,37,26,30,23,18,97,58,33,30.27,30.03,46,11,47,0.03
2013-2-3,57,40,25,27,21,13,88,52,19,30.26,29.71,32,7,32,0.00
2013-2-4,51,37,25,32,24,20,87,61,35,30.01,29.73,32,4,32,0.00
2013-2-5,49,41,32,30,27,24,81,58,42,30.03,29.82,23,8,23,0.00
2013-2-6,52,40,28,29,25,22,91,56,38,30.12,29.75,36,8,36,0.00
2013-2-7,51,37,26,25,20,16,77,52,27,30.16,29.99,19,6,19,0.00
2013-2-8,49,35,25,25,22,16,94,61,29,30.05,29.81,20,11,20,0.00
2013-2-9,39,29,21,30,23,18,100,79,51,29.95,29.71,41,16,41,0.00
2013-2-10,31,25,14,28,21,10,100,86,62,30.16,29.69,56,25,56,0.00
2013-2-11,33,20,9,21,13,6,97,74,45,30.21,30.00,15,3,15,0.00
2013-2-12,49,31,16,23,16,5,74,53,32,30.09,29.87,22,4,40,0.00
2013-2-13,49,38,29,30,24,19,93,59,35,30.03,29.73,41,12,41,0.00
2013-2-14,33,25,9,27,16,8,99,72,42,30.45,30.01,50,15,50,0.00
2013-2-15,32,22,12,18,12,7,100,67,37,30.42,30.16,31,7,31,0.00
2013-2-16,56,40,23,28,24,13,79,54,31,30.16,29.83,26,5,26,0.00
2013-2-17,57,38,27,30,23,16,82,56,21,29.89,29.45,45,11,45,0.00
2013-2-18,34,28,23,26,18,14,86,66,51,30.14,29.82,43,21,46,0.00
2013-2-19,23,15,7,16,12,7,100,87,68,30.34,30.15,15,6,15,0.00
2013-2-20,31,22,13,22,16,11,99,77,49,30.15,29.89,27,17,31,0.00
2013-2-21,27,20,14,25,19,14,100,99,87,30.09,30.02,16,6,18,0.02
2013-2-22,37,23,13,29,19,13,100,88,61,30.09,29.87,16,3,24,0.02
2013-2-23,45,32,17,30,16,10,88,57,27,29.90,29.63,16,3,16,0.00
2013-2-24,34,30,22,32,25,17,97,82,56,30.20,29.87,35,13,35,0.00
2013-2-25,48,30,14,21,14,0,95,57,15,30.21,29.80,32,8,32,0.00
2013-2-26,38,24,18,25,15,9,78,67,51,29.98,29.85,30,3,30,0.00
2013-2-27,41,29,17,25,20,17,100,73,42,30.35,30.12,34,12,35,0.00
2013-2-28,41,27,13,29,22,12,100,82,48,30.35,30.13,15,2,15,0.00
2013-3-1,47,34,22,24,18,13,92,56,28,30.34,30.17,20,5,20,0.00
2013-3-2,62,47,33,34,29,21,80,50,28,30.19,29.90,22,5,22,0.00
2013-3-3,59,47,34,31,29,22,77,50,33,29.90,29.49,48,10,48,0.00
2013-3-4,35,26,16,22,10,0,73,51,30,30.33,29.74,51,17,51,0.23
2013-3-5,33,19,6,15,11,6,100,72,44,30.49,30.28,16,3,16,0.00
2013-3-6,49,28,12,22,17,11,100,70,32,30.34,29.81,19,6,19,0.00
2013-3-7,55,43,30,28,26,23,82,53,31,30.11,29.85,23,14,23,0.00
2013-3-8,41,33,24,30,27,23,99,82,60,30.17,29.90,10,3,10,0.00
2013-3-9,44,35,27,28,20,12,87,55,31,30.17,29.77,59,30,60,0.01
2013-3-10,42,28,14,24,12,4,100,59,22,30.34,30.03,34,12,35,0.00
2013-3-11,48,37,25,28,18,9,67,47,27,30.19,29.82,47,14,48,0.00
2013-3-12,39,28,23,14,6,1,56,39,24,30.31,30.15,32,16,37,0.00
2013-3-13,65,46,28,28,20,7,47,36,25,30.24,29.90,18,6,18,0.00
2013-3-14,72,57,41,33,30,26,61,37,19,30.17,29.87,15,5,15,0.00
2013-3-15,67,53,32,34,29,26,89,42,22,30.13,29.66,31,13,31,0.00
2013-3-16,31,27,23,28,21,15,97,79,62,30.16,30.03,17,7,17,0.03
2013-3-17,51,32,22,40,25,15,95,76,47,30.03,29.35,48,19,51,0.20
2013-3-18,36,25,11,21,12,0,100,62,24,30.07,29.84,24,6,24,0.00
2013-3-19,38,28,13,21,14,6,83,55,34,30.49,30.01,44,13,44,0.00
2013-3-20,47,30,12,22,14,8,87,56,28,30.49,29.82,31,10,31,0.00
2013-3-21,43,23,13,30,18,13,100,83,49,29.96,29.66,20,5,32,0.00
2013-3-22,36,25,17,33,18,0,100,77,31,30.17,29.87,38,11,38,0.00
2013-3-23,28,17,6,27,15,6,100,93,73,30.37,30.17,37,12,37,0.00
2013-3-24,21,13,4,16,11,4,100,92,67,30.42,30.23,36,13,36,0.00
2013-3-25,31,17,3,18,12,3,100,83,51,30.48,30.28,17,3,17,0.00
2013-3-26,41,27,14,25,19,12,100,71,42,30.31,29.98,23,10,23,0.00
2013-3-27,54,33,20,27,20,15,96,63,28,30.17,29.96,20,3,20,0.00
2013-3-28,61,46,30,33,27,21,83,50,28,30.12,29.93,12,4,12,0.00
2013-3-29,67,53,38,35,30,27,65,44,25,30.11,29.81,24,11,24,0.00
2013-3-30,57,46,32,41,35,28,92,66,38,30.19,29.96,43,12,43,0.02
2013-3-31,55,39,28,34,28,18,95,68,33,30.27,29.87,30,9,31,0.00
2013-4-1,51,37,22,29,24,19,100,65,36,30.29,30.05,22,5,22,0.00
2013-4-2,57,41,23,29,24,21,98,57,31,30.25,30.00,20,4,21,0.00
2013-4-3,72,52,35,41,30,22,70,46,18,30.16,29.77,36,15,40,0.00
2013-4-4,54,41,31,31,24,14,93,55,33,30.23,29.98,20,5,21,0.00
2013-4-5,61,45,30,40,29,19,85,55,34,30.09,29.54,29,6,31,0.00
2013-4-6,67,54,41,42,33,25,90,50,24,29.83,29.64,31,10,34,0.00
2013-4-7,61,49,40,46,37,29,90,64,43,29.82,29.57,24,7,25,0.00
2013-4-8,43,32,15,40,28,15,100,84,45,30.23,29.65,47,18,47,0.00
2013-4-9,15,12,10,15,12,0,100,100,100,30.44,30.22,50,29,60,0.00
2013-4-10,24,20,15,24,7,-53,100,70,1,30.35,30.12,34,20,35,0.00
2013-4-15,30,30,30,19,19,19,62,62,62,29.95,29.95,20,20,20,0.00
2013-4-16,25,25,25,1,1,1,35,35,35,30.31,30.30,10,10,20,0.00
2013-4-17,26,25,25,24,18,14,93,75,63,30.25,30.23,20,19,20,0.00
2013-4-18,32,27,20,21,18,13,94,70,53,30.23,30.11,24,15,24,0.00
2013-4-19,42,34,22,34,27,10,93,77,54,30.07,29.98,14,6,14,0.00
2013-4-20,50,36,28,40,27,9,95,70,42,30.01,29.85,9,3,9,0.26
2013-4-21,48,36,32,42,21,-9,91,57,17,30.18,29.94,23,10,30,0.14
2013-4-22,32,24,15,25,11,-20,100,67,11,30.49,30.15,33,17,33,0.02
2013-4-23,36,19,10,20,14,10,100,84,46,30.48,30.25,13,3,13,0.01
2013-4-24,44,35,25,30,24,19,86,64,45,30.19,30.07,26,10,26,0.01
2013-4-25,66,51,29,38,27,18,94,45,16,30.15,29.69,23,9,31,0.01
2013-4-26,70,55,38,36,30,25,65,41,22,30.09,29.95,19,5,21,0.00
2013-4-27,78,62,42,39,31,25,65,35,16,30.11,29.72,25,7,25,0.00
2013-4-28,69,58,47,46,36,30,89,46,33,29.97,29.72,43,16,46,0.02
2013-4-29,75,57,43,45,37,12,91,52,19,29.91,29.27,57,17,57,0.04
2013-4-30,56,44,33,40,30,15,90,60,25,30.20,29.63,44,18,45,0.03
2013-5-1,48,36,29,25,19,11,76,52,25,30.62,30.20,34,13,34,0.00
2013-5-2,55,41,25,26,20,15,77,47,26,30.67,30.32,25,4,25,0.00
2013-5-3,60,46,30,29,23,19,72,44,25,30.39,30.03,22,6,22,0.00
2013-5-4,55,39,27,25,19,11,70,48,21,30.29,30.16,19,3,19,0.00
2013-5-5,62,52,32,27,23,17,64,34,22,30.32,30.01,22,5,22,0.00
2013-5-6,69,54,35,32,28,21,69,40,24,30.17,29.84,25,6,28,0.00
2013-5-7,73,57,42,47,38,28,89,51,27,30.01,29.67,29,10,29,0.00
2013-5-8,72,58,41,47,40,32,90,55,29,30.08,29.85,29,9,29,0.00
2013-5-9,64,54,44,48,43,38,89,68,46,30.16,30.01,26,8,26,0.01
2013-5-10,74,56,41,52,40,27,90,60,20,30.30,29.92,52,10,52,0.03
2013-5-11,57,44,35,32,27,24,71,52,35,30.41,30.25,18,7,23,0.00
2013-5-12,73,61,41,41,35,27,58,39,29,30.16,29.85,13,6,13,0.00
2013-5-13,88,76,60,49,45,38,55,35,20,29.85,29.67,26,5,29,1.21
2013-5-14,78,70,53,50,42,35,57,37,24,29.92,29.55,44,14,47,0.00
2013-5-15,76,63,47,45,40,33,70,44,29,30.01,29.72,28,7,28,0.00
2013-5-16,76,64,58,56,48,6,82,59,12,29.82,29.61,42,11,42,0.25
2013-5-17,75,64,50,61,54,22,89,71,33,29.85,29.60,35,7,35,0.15
2013-5-18,72,61,54,60,54,38,89,79,53,29.81,29.65,30,9,33,0.40
2013-5-19,60,55,51,57,42,1,91,67,11,29.75,29.66,37,14,38,0.03
2013-5-20,58,51,46,48,45,33,91,79,62,29.87,29.59,59,28,59,0.09
2013-5-21,54,47,43,46,40,17,92,77,33,29.99,29.83,48,24,50,0.05
2013-5-22,54,49,43,49,42,18,92,78,35,30.14,29.97,32,14,32,0.00
2013-5-23,68,57,42,49,40,3,91,56,15,30.19,29.90,38,15,38,0.02
2013-5-24,78,64,56,58,54,48,89,71,46,29.94,29.71,41,20,41,0.00
2013-5-25,81,67,52,62,55,43,90,68,41,29.95,29.63,28,8,28,0.00
2013-5-26,71,59,52,64,22,-43,89,30,1,29.98,29.76,28,8,29,0.03
2013-5-27,71,59,50,63,28,-29,90,40,7,29.85,29.58,33,10,34,0.18
2013-5-28,73,60,43,56,47,37,90,66,31,29.84,29.56,25,7,27,0.00
2013-5-29,71,59,50,58,36,-44,89,51,1,29.70,29.41,38,7,38,1.60
2013-5-30,65,57,52,56,29,-46,89,44,1,29.55,29.32,35,11,43,0.12
2013-5-31,59,52,48,46,42,39,89,68,52,29.91,29.52,44,16,44,0.24
2013-6-1,63,53,44,46,41,35,91,66,43,30.19,29.90,48,21,48,0.00
2013-6-2,73,57,40,54,46,34,90,69,43,30.19,29.71,26,10,26,0.00
2013-6-3,71,58,48,56,47,18,90,68,29,29.94,29.58,33,12,33,0.00
2013-6-4,61,54,46,47,42,33,85,63,52,30.19,29.91,43,12,43,0.00
2013-6-5,61,52,40,48,42,36,90,69,52,30.21,30.03,29,9,29,0.00
2013-6-6,51,50,48,46,45,44,88,85,82,30.11,30.10,0,0,0,0.00
2013-6-7,60,60,59,56,55,54,88,86,84,29.76,29.69,25,14,25,0.00
2013-6-8,71,63,53,58,46,9,88,58,17,29.74,29.66,30,15,30,0.08
2013-6-9,73,60,49,55,53,45,88,80,45,29.97,29.72,11,4,25,0.00
2013-6-10,80,68,55,63,58,52,89,70,48,29.80,29.63,26,11,26,0.00
2013-6-11,73,66,56,67,57,14,89,75,19,29.93,29.71,39,11,41,0.33
2013-6-12,67,59,54,57,43,-44,89,63,1,30.14,29.85,31,10,32,0.00
2013-6-13,70,62,51,61,53,34,90,73,51,30.15,29.77,40,14,40,0.00
2013-6-14,78,67,57,60,52,24,89,60,28,29.98,29.71,30,12,31,0.01
2013-6-15,74,65,55,53,47,34,85,55,28,30.02,29.85,19,6,19,0.00
2013-6-16,77,65,52,63,54,49,89,71,39,30.07,29.82,30,6,30,0.00
2013-6-17,72,63,56,60,54,44,88,74,51,30.08,29.99,18,6,19,0.28
2013-6-18,79,66,50,62,54,35,89,66,43,30.08,29.77,26,6,26,0.00
2013-6-19,83,72,60,65,58,50,86,63,46,29.83,29.51,47,15,48,0.08
2013-6-20,83,73,65,66,53,36,88,53,23,29.83,29.52,38,12,48,0.01
2013-6-21,69,64,59,64,43,-39,90,57,3,29.91,29.77,34,13,34,0.26
2013-6-22,77,63,53,65,38,-45,90,50,1,29.93,29.67,31,10,31,0.82
2013-6-23,79,64,51,56,47,-4,90,57,11,29.93,29.67,25,8,25,0.00
2013-6-24,84,70,59,65,51,-40,89,56,1,29.80,29.50,28,8,28,0.00
2013-6-25,80,73,60,59,52,41,88,49,29,29.84,29.49,40,13,40,0.00
2013-6-26,86,73,58,64,57,51,89,60,37,29.97,29.73,20,8,20,0.00
2013-6-27,88,74,61,62,57,52,87,56,33,30.09,29.88,25,8,25,0.00
2013-6-28,82,71,56,57,54,47,88,57,34,30.19,29.95,35,10,35,0.00
2013-6-29,78,68,58,59,52,43,89,60,30,30.13,29.94,31,10,31,0.00
2013-6-30,81,68,54,56,52,49,90,60,35,30.16,29.96,17,4,17,0.00
2013-7-1,79,69,60,59,54,47,89,61,41,30.17,30.01,20,5,20,0.00
2013-7-2,85,69,53,58,51,47,88,56,30,30.17,29.89,17,4,27,0.00
2013-7-3,89,72,56,53,50,44,85,49,24,30.01,29.63,23,6,23,0.00
2013-7-4,70,65,62,50,49,48,62,55,46,29.81,29.77,12,8,12,0.00
2013-7-5,82,72,66,67,60,46,86,67,40,29.79,29.60,12,4,14,0.05
2013-7-6,82,72,64,65,55,44,74,58,44,29.86,29.67,22,11,22,0.09
2013-7-7,83,75,63,66,59,24,88,59,25,29.99,29.78,27,7,29,0.03
2013-7-8,83,71,62,68,54,-4,88,60,6,30.00,29.76,48,8,48,1.01
2013-7-9,83,70,56,62,54,21,89,61,24,30.11,29.91,26,10,33,0.00
2013-7-10,86,70,57,67,59,45,90,71,30,30.16,29.77,24,9,34,0.21
2013-7-11,93,79,67,69,63,54,88,60,30,29.89,29.56,28,12,29,0.00
2013-7-12,89,77,67,64,59,52,88,55,32,29.90,29.62,41,13,41,0.00
2013-7-13,88,76,63,69,63,58,90,67,42,29.91,29.73,25,6,25,0.00
2013-7-14,75,66,63,66,62,58,90,86,71,30.14,29.88,41,19,41,0.00
2013-7-15,84,75,63,69,58,8,89,59,11,30.12,29.80,28,14,29,0.00
2013-7-16,86,73,60,57,53,48,75,52,31,30.03,29.89,30,14,30,0.00
2013-7-30,76,64,60,64,57,49,90,78,59,30.12,29.92,13,6,20,0.00
2013-7-31,81,65,57,59,55,48,90,71,37,30.19,29.95,15,6,15,0.01
2013-8-1,72,63,57,57,55,53,88,76,60,30.04,29.83,6,3,9,0.00
2013-8-2,66,66,66,62,62,62,88,88,88,29.82,29.82,20,20,20,0.00
2013-8-3,61,61,61,40,40,40,46,46,46,30.08,30.08,14,14,20,0.00
2013-8-4,84,79,74,67,63,61,80,60,46,29.85,29.79,11,7,14,0.00
2013-8-5,77,67,62,65,60,28,88,78,31,29.89,29.81,32,10,37,0.27
2013-8-6,80,71,58,63,50,-42,91,53,1,30.00,29.81,25,9,32,1.08
2013-8-7,80,68,57,64,57,52,90,70,42,30.01,29.83,38,6,38,0.01
2013-8-8,78,67,57,62,52,-6,90,63,7,30.04,29.90,21,7,21,0.00
2013-8-9,76,66,56,63,51,-29,90,62,4,30.12,29.99,25,6,25,0.24
2013-8-10,78,69,60,66,43,-28,88,48,2,30.11,29.89,10,4,10,0.01
2013-8-11,73,66,60,67,39,0,89,50,10,30.06,29.98,14,6,14,0.00
2013-8-12,77,71,57,68,64,52,88,77,64,30.06,29.95,15,4,16,0.00
2013-8-13,77,66,57,67,40,-40,89,49,1,30.14,29.97,32,6,32,0.35
2013-8-14,75,66,53,65,49,-33,90,61,2,30.11,29.92,14,3,21,0.00
2013-8-15,74,64,57,66,34,-43,90,44,2,30.11,29.92,31,6,31,0.00
2013-8-16,83,68,57,68,35,0,86,37,24,30.11,29.86,19,6,19,0.01
2013-8-17,88,73,56,67,60,30,86,66,35,30.00,29.75,17,5,17,0.00
2013-8-18,82,71,60,72,61,36,86,72,40,29.94,29.79,32,8,32,0.02
2013-8-19,87,76,63,65,58,43,86,57,24,29.95,29.74,23,6,23,0.00
2013-8-20,93,77,63,64,58,48,86,55,28,29.85,29.66,17,4,17,0.00
2013-8-21,77,70,59,62,56,50,86,62,45,30.08,29.85,23,6,24,0.02
2013-8-22,81,68,56,66,58,40,88,70,46,30.14,29.93,20,6,20,0.00
2013-8-23,88,74,62,69,51,-14,87,49,5,30.01,29.65,32,12,33,0.00
2013-8-24,93,80,64,64,55,47,79,47,23,29.85,29.65,33,8,33,0.00
2013-8-25,92,79,67,63,58,53,73,52,30,29.95,29.76,24,6,24,0.00
2013-8-26,96,81,69,63,56,47,78,47,20,29.89,29.67,20,6,20,0.00
2013-8-27,96,81,65,67,56,48,85,47,21,29.92,29.65,30,9,30,0.00
2013-8-28,87,75,65,72,59,5,87,62,9,29.97,29.76,52,10,52,0.00
2013-8-29,91,80,67,61,54,47,67,42,28,30.01,29.77,31,12,31,0.00
2013-8-30,91,74,64,70,62,32,86,65,38,30.04,29.76,48,10,48,0.38
2013-8-31,83,73,59,62,52,43,79,51,29,30.07,29.77,49,16,49,0.00
2013-9-1,81,67,52,50,46,41,70,48,31,30.13,29.90,15,4,34,0.00
2013-9-2,89,73,52,60,52,46,87,52,25,30.09,29.75,23,5,23,0.00
2013-9-3,90,77,67,63,60,55,82,56,35,29.97,29.74,22,8,22,0.00
2013-9-4,90,76,64,65,62,60,88,64,38,30.02,29.85,20,8,20,0.00
2013-9-5,93,78,66,66,61,52,88,60,31,30.06,29.78,27,7,28,0.00
2013-9-6,88,77,68,64,60,53,76,55,37,29.91,29.78,30,6,31,0.00
2013-9-7,92,78,67,65,61,54,87,57,29,29.97,29.76,27,7,27,0.00
2013-9-8,81,70,63,68,50,-39,88,58,3,29.96,29.71,40,8,40,0.26
2013-9-9,74,66,59,63,34,-39,89,38,2,29.97,29.75,22,6,22,0.26
2013-9-10,61,59,57,57,52,23,90,78,31,30.03,29.95,13,5,14,0.01
2013-9-11,82,71,56,58,49,42,89,48,27,30.20,30.01,17,4,24,0.00
2013-9-12,62,58,56,52,50,48,83,74,64,30.25,30.20,17,7,17,0.00
2013-9-13,66,60,52,59,43,-8,89,63,6,30.19,29.89,21,10,28,0.00
2013-9-14,81,67,58,64,36,-41,87,42,1,29.99,29.68,32,12,39,0.00
2013-9-15,67,58,52,58,28,0,91,39,11,30.26,30.01,22,9,30,0.01
2013-9-16,65,57,49,57,36,-23,90,58,4,30.24,29.92,28,16,36,0.00
2013-9-17,90,78,52,63,46,-46,82,35,1,29.91,29.51,23,7,28,0.00
2013-9-18,88,71,57,54,49,40,87,50,21,29.85,29.45,38,11,39,0.00
2013-9-19,64,55,40,46,41,36,90,62,39,30.22,29.85,34,13,35,0.00
2013-9-20,71,55,38,42,38,34,92,58,32,30.23,29.88,20,4,20,0.00
2013-9-21,89,66,45,42,36,27,71,39,12,30.01,29.48,22,8,22,0.00
2013-9-22,76,61,56,45,38,34,54,43,32,29.66,29.51,14,6,14,0.00
2013-9-23,63,56,46,58,35,-42,90,54,1,29.99,29.51,34,13,34,0.28
2013-9-24,73,58,44,50,43,36,92,63,30,30.06,29.79,20,8,20,0.00
2013-9-25,77,65,53,46,46,45,75,54,34,29.74,29.43,15,14,15,0.00
2013-9-26,60,53,47,52,24,-20,75,43,5,29.84,29.76,15,8,17,0.00
2013-9-27,40,40,40,22,20,17,48,44,39,30.01,29.99,4,2,15,0.00
2013-9-28,61,52,37,38,27,-8,54,41,14,30.03,29.91,18,8,18,0.01
2013-9-29,60,58,55,38,37,35,51,46,42,29.74,29.70,12,5,12,0.00
2013-9-30,83,65,51,49,38,34,71,40,19,29.87,29.35,48,15,48,0.08
2013-10-1,70,58,43,39,32,20,63,40,20,30.07,29.81,28,8,31,0.00
2013-10-2,61,55,47,40,35,29,65,49,36,30.02,29.79,46,16,46,0.00
2013-10-3,50,46,37,47,34,-12,91,67,9,30.14,29.96,40,14,40,0.48
2013-10-4,38,33,32,14,0,-8,39,23,16,30.14,30.06,52,34,58,0.02
2013-10-7,69,59,55,46,40,34,68,49,35,29.78,29.71,25,14,26,0.00
2013-10-8,66,56,43,41,34,30,66,46,29,29.91,29.61,32,9,32,0.00
2013-10-9,49,48,47,35,34,33,60,58,55,29.96,29.90,24,15,24,0.00
2013-10-10,59,51,38,49,32,-48,84,56,1,30.01,29.57,20,6,21,0.13
2013-10-11,51,47,40,45,26,-49,92,51,1,30.05,29.42,44,19,57,2.02
2013-10-12,53,43,31,37,31,27,90,65,42,30.29,30.05,17,3,17,0.02
2013-10-13,60,46,31,47,38,15,93,75,49,30.31,30.00,25,4,25,0.00
2013-10-14,47,40,33,43,20,-52,94,51,1,30.19,29.91,42,17,42,1.00
2013-10-15,42,36,32,35,28,3,95,74,27,30.31,30.17,39,15,39,0.00
2013-10-16,56,40,25,32,27,18,93,63,26,30.25,29.92,17,3,17,0.00
2013-10-17,43,37,31,38,28,19,94,72,38,30.21,30.04,36,13,36,0.00
2013-10-18,43,36,28,36,28,22,96,74,47,30.22,30.01,27,6,27,0.00
2013-10-19,63,51,38,34,31,28,68,47,29,30.01,29.75,24,7,25,0.00
2013-10-20,51,44,37,40,35,32,92,73,51,30.13,29.83,43,12,43,0.00
2013-10-21,55,44,31,44,27,-58,96,59,1,30.17,29.91,39,10,39,0.00
2013-10-22,48,44,40,43,40,31,91,86,64,30.13,30.02,27,4,31,0.00
2013-10-23,51,44,36,43,38,22,91,81,51,30.34,30.01,32,11,32,0.00
2013-10-24,48,38,31,40,19,-58,88,43,2,30.40,30.24,16,5,16,0.00
2013-10-25,70,51,34,45,37,22,88,62,32,30.25,29.92,22,6,22,0.00
2013-10-26,59,45,31,36,32,27,90,62,36,30.37,30.01,20,4,20,0.00
2013-10-27,66,51,34,40,34,26,89,54,26,30.24,29.76,23,9,23,0.00
2013-10-28,34,26,24,31,-1,-36,91,40,5,30.44,30.24,21,10,21,0.00
2013-10-29,29,26,24,4,-10,-50,36,14,1,30.35,30.09,10,1,10,0.00
2013-10-30,36,32,28,0,0,0,0,0,100,30.09,29.85,13,1,22,0.24
2013-10-31,54,42,30,36,26,-20,96,54,9,29.86,29.66,28,6,28,0.01
2013-11-1,50,43,34,38,28,20,90,56,33,30.21,29.79,61,17,61,0.11
2013-11-2,58,45,34,33,28,23,70,52,33,30.22,29.63,32,13,32,0.00
2013-11-3,58,46,37,35,30,23,84,56,31,29.91,29.54,36,12,36,0.00
2013-11-4,43,35,23,31,27,21,97,74,44,30.23,29.89,22,5,22,0.00
2013-11-5,32,25,15,28,1,-51,100,53,2,30.30,30.19,13,5,13,0.11
2013-11-6,45,31,14,35,25,13,100,81,46,30.41,30.12,31,2,31,0.01
2013-11-7,47,36,25,39,31,23,94,81,60,30.44,29.89,21,6,21,0.00
2013-11-8,55,46,35,36,28,21,93,51,29,30.03,29.61,40,10,40,0.00
2013-11-9,48,40,29,33,28,25,93,63,45,30.39,29.99,25,7,25,0.00
2013-11-10,59,42,28,35,30,10,93,65,38,30.35,30.03,25,8,27,0.00
2013-11-11,30,18,14,21,17,5,100,93,42,30.78,30.30,25,8,25,0.00
2013-11-12,62,34,12,38,24,10,100,71,22,30.76,30.19,20,5,20,0.00
2013-11-13,46,42,38,26,24,21,59,50,38,30.22,30.14,9,1,9,0.00
2013-11-15,46,36,30,35,30,26,94,80,63,29.91,29.54,9,1,9,0.00
2013-11-16,44,39,32,30,29,28,86,68,55,29.49,29.41,14,6,16,0.00
2013-11-19,62,62,62,25,25,25,24,24,24,29.57,29.56,7,5,8,0.00
2013-11-20,38,38,38,26,26,26,63,63,63,29.81,29.81,1,1,7,0.00
2013-11-21,13,8,5,9,7,5,100,100,82,30.77,30.66,16,2,36,0.00
2013-11-22,41,22,8,15,6,-10,100,54,21,30.81,30.47,23,6,23,0.00
2013-11-23,33,20,7,20,14,7,100,78,47,30.81,30.35,25,8,26,0.00
2013-11-24,49,37,24,26,20,6,82,52,28,30.39,29.93,29,12,29,0.00
2013-11-25,43,36,26,27,19,11,70,52,31,30.37,30.09,42,11,44,0.00
2013-11-26,35,31,29,19,18,16,63,57,51,30.40,30.33,22,12,23,0.00
2013-12-16,39,31,23,32,22,-4,96,71,26,30.25,30.07,16,5,18,0.00
2013-12-17,50,36,20,30,24,16,99,67,30,30.38,29.79,30,11,30,0.00
2013-12-18,63,43,25,28,23,18,95,50,22,29.97,29.65,32,6,32,0.00
2013-12-19,27,11,-7,17,0,-27,100,74,9,30.30,29.96,28,9,28,0.00
2013-12-20,21,6,-8,21,6,-8,100,99,85,30.29,29.84,13,1,14,0.00
2013-12-21,17,11,5,16,11,5,100,98,84,30.16,29.83,16,4,16,0.00
2013-12-22,14,6,-5,14,6,-5,100,100,99,30.57,30.12,20,6,22,0.00
2013-12-23,22,1,-16,22,1,-16,100,100,99,30.63,30.02,16,4,16,0.00
2013-12-24,39,31,21,35,26,10,100,84,37,30.27,29.83,38,8,38,0.00
2013-12-25,35,28,22,25,18,13,87,66,54,30.38,30.11,20,4,23,0.00
2013-12-26,47,37,23,30,22,11,73,55,29,30.19,30.02,18,4,18,0.00
2013-12-27,55,44,34,37,30,26,85,60,46,30.13,29.88,18,4,20,0.00
2013-12-28,50,27,4,31,17,4,100,70,34,30.55,29.73,53,20,56,0.00
2013-12-29,31,14,1,24,11,0,100,91,70,30.57,29.95,21,5,21,0.00
2013-12-30,38,30,21,31,25,18,99,85,60,30.19,29.95,32,11,32,0.00
2013-12-31,36,21,11,25,17,11,100,88,55,30.21,29.87,27,6,27,0.00
2014-1-1,32,18,9,29,15,5,100,87,54,30.39,30.20,27,5,27,0.00
2014-1-2,35,26,17,27,22,11,100,87,56,30.33,29.88,20,3,22,0.00